User: anonymous   Login
Location: Langangen
(59.1000°N, 9.8000°E)
Time: 23:18:40
(UTC+01:00)
Language:

Iridium 60 - Orbit

View from above orbital plane
View from above orbital plane
View from above satellite
View from above satellite

Ground track
Ground track

The orbit data is extracted from the following two-line orbital elements,

1 25276U 98019E   16345.59807794  .00000012  00000-0 -28020-5 0  9998
2 25276  86.3948   5.8459 0002034  88.0583 272.0846 14.34221059979032
Epoch (UTC): 10 December 2016 14:21:13
Eccentricity: 0.0002034
inclination: 86.3948°
perigee height: 776 km
apogee height: 779 km
right ascension of ascending node: 5.8459°
argument of perigee: 88.0583°
revolutions per day: 14.34221059
mean anomaly at epoch: 272.0846°
orbit number at epoch: 97903

The dashed part of the orbit path shows where the satellite is in the earth's shadow,  

DLR